This is the latest recevied weather packets stored in our database for station/object SP3SWJ-13. If no packets are shown the sender has not sent any weather packets the latest 10 day(s).
| Time | Temp. | Humidity | Pressure | Rain* | Wind** | Luminosity | Snow |
|---|---|---|---|---|---|---|---|
| 1777644775 | 23.33° C | 26% | 1016.3 hPa | - | - | 449 W/m² | - |
| 1777644474 | 23.89° C | 26% | 1016.3 hPa | - | - | 461 W/m² | - |
| 1777644174 | 24.44° C | 26% | 1016.3 hPa | - | - | 474 W/m² | - |
| 1777643872 | 24.44° C | 25% | 1016.3 hPa | - | - | 485 W/m² | - |
| 1777643571 | 23.89° C | 26% | 1016.3 hPa | - | - | 493 W/m² | - |
| 1777643271 | 24.44° C | 24% | 1016.3 hPa | - | - | 503 W/m² | - |
| 1777642969 | 24.44° C | 25% | 1016.4 hPa | - | - | 512 W/m² | - |
| 1777642669 | 23.89° C | 27% | 1016.4 hPa | - | - | 498 W/m² | - |
| 1777642367 | 23.89° C | 27% | 1016.5 hPa | - | - | 521 W/m² | - |
| 1777642067 | 23.89° C | 27% | 1016.5 hPa | - | - | 535 W/m² | - |
| 1777641766 | 24.44° C | 26% | 1016.6 hPa | - | - | 542 W/m² | - |
| 1777641465 | 24.44° C | 26% | 1016.6 hPa | - | - | 547 W/m² | - |
| 1777641164 | 24.44° C | 26% | 1016.6 hPa | - | - | 568 W/m² | - |
| 1777640863 | 24.44° C | 26% | 1016.7 hPa | - | - | 575 W/m² | - |
| 1777640562 | 23.89° C | 28% | 1016.7 hPa | - | - | 583 W/m² | - |
| 1777640261 | 23.89° C | 28% | 1016.7 hPa | - | - | 588 W/m² | - |
| 1777639960 | 23.33° C | 28% | 1016.8 hPa | - | - | 608 W/m² | - |
| 1777639659 | 23.89° C | 28% | 1016.8 hPa | - | - | 611 W/m² | - |
| 1777639358 | 23.33° C | 28% | 1016.9 hPa | - | - | 621 W/m² | - |
| 1777639057 | 23.89° C | 30% | 1016.9 hPa | - | - | 624 W/m² | - |
| 1777638756 | 22.78° C | 30% | 1017 hPa | - | - | 629 W/m² | - |
| 1777638455 | 21.67° C | 30% | 1017 hPa | - | - | 640 W/m² | - |
| 1777638154 | 22.78° C | 29% | 1017.1 hPa | - | - | 641 W/m² | - |
| 1777637853 | 23.33° C | 31% | 1017.1 hPa | - | - | 653 W/m² | - |
| 1777637553 | 22.78° C | 32% | 1017.2 hPa | - | - | 656 W/m² | - |
* Rain since midnight (hover to see other rain measurements)
** Current wind speed in m/s (hover to see current wind gust speed)